Le nostre stazioni meteo in Italia

Pubblicità
Il mio iltempo24.it
Chillingham Barns, Gran Bretagna (99196): Temperatura & dewpoint: 22.06.2017 23:00:00 - 28.06.2017 23:00:00 (BST)Chillingham Barns, Gran Bretagna (99196): visibility: 22.06.2017 23:00:00 - 28.06.2017 23:00:00 (BST)Chillingham Barns, Gran Bretagna (99196): precipitazioni: 22.06.2017 23:00:00 - 28.06.2017 23:00:00 (BST)
Data & Tempo tt [°C] td [°C] vv [km] rr [mm]
28.06.2017 23:00:00 10,7 10,4 - 2,4
28.06.2017 22:00:00 10,5 10,0 - 1,4
28.06.2017 21:00:00 10,5 9,7 - 0,8
28.06.2017 20:00:00 11,0 8,8 - 0,0
28.06.2017 19:00:00 11,3 8,2 - 0,0
28.06.2017 18:00:00 11,6 8,1 - 0,0
28.06.2017 17:00:00 11,6 8,4 - 0,0
28.06.2017 16:00:00 11,9 7,8 - 0,0
28.06.2017 15:00:00 12,3 8,5 - 0,0
28.06.2017 14:00:00 12,6 8,5 - 0,0
28.06.2017 13:00:00 12,5 8,7 - 0,0
28.06.2017 12:00:00 12,8 8,5 - 0,0
28.06.2017 11:00:00 12,5 9,2 - 0,0
28.06.2017 10:00:00 13,0 8,6 0,2 0,0
28.06.2017 09:00:00 12,7 9,5 - 0,0
28.06.2017 08:00:00 12,2 10,1 - 0,0
28.06.2017 07:00:00 11,3 9,7 - 0,0
28.06.2017 06:00:00 11,1 10,4 - 0,0
28.06.2017 05:00:00 11,4 10,2 - 0,0
28.06.2017 04:00:00 11,5 10,1 - 0,0
28.06.2017 03:00:00 11,7 10,3 - 0,0
28.06.2017 02:00:00 11,7 10,3 - 0,0
28.06.2017 01:00:00 11,6 10,6 - 0,0
28.06.2017 00:00:00 11,4 10,3 - 0,0
27.06.2017 23:00:00 11,0 9,7 - 0,0
27.06.2017 22:00:00 10,9 8,9 - 0,0
27.06.2017 21:00:00 10,9 9,9 - 0,0
27.06.2017 20:00:00 11,2 10,3 - 0,0
27.06.2017 19:00:00 11,1 10,0 - 0,0
27.06.2017 18:00:00 10,7 9,9 - 0,0
27.06.2017 17:00:00 11,0 9,7 - 0,0
27.06.2017 16:00:00 12,0 9,9 - 0,0
27.06.2017 15:00:00 11,4 9,6 - 0,2
27.06.2017 14:00:00 12,0 9,7 - 0,0
27.06.2017 13:00:00 11,5 10,5 - 1,0
27.06.2017 12:00:00 11,3 10,0 - 0,4
27.06.2017 11:00:00 11,3 9,8 - 0,4
27.06.2017 10:00:00 10,9 9,8 2,0 1,0
27.06.2017 09:00:00 10,7 10,0 - 1,2
27.06.2017 08:00:00 10,7 10,4 - 1,6
27.06.2017 07:00:00 10,6 10,2 - 1,2
27.06.2017 06:00:00 10,0 9,8 - 1,0
27.06.2017 05:00:00 10,0 9,3 - 0,2
27.06.2017 04:00:00 10,6 9,9 - 0,6
27.06.2017 03:00:00 11,2 10,9 - 0,6
27.06.2017 02:00:00 11,4 10,9 - 0,0
27.06.2017 01:00:00 11,4 10,6 - 0,0
27.06.2017 00:00:00 11,4 10,3 - 0,0
26.06.2017 23:00:00 11,6 10,2 - 0,0
26.06.2017 22:00:00 11,6 9,9 - 0,0
26.06.2017 21:00:00 12,0 9,8 - 0,0
26.06.2017 20:00:00 12,5 9,0 - 0,0
26.06.2017 19:00:00 13,1 9,6 - 0,0
26.06.2017 18:00:00 13,8 9,7 - 0,0
26.06.2017 17:00:00 13,7 9,4 - 0,0
26.06.2017 16:00:00 14,1 9,6 - 0,0
26.06.2017 15:00:00 13,7 9,6 - 0,0
26.06.2017 14:00:00 13,1 9,4 - 0,0
26.06.2017 13:00:00 13,9 9,3 - 0,0
26.06.2017 12:00:00 14,9 8,7 - 0,0
26.06.2017 11:00:00 16,0 7,8 - 0,0
26.06.2017 10:00:00 14,8 8,1 3,0 0,0
26.06.2017 09:00:00 14,3 8,8 - 0,0
26.06.2017 08:00:00 12,8 8,3 - 0,0
26.06.2017 07:00:00 10,9 7,9 - 0,0
26.06.2017 06:00:00 10,0 7,3 - 0,0
26.06.2017 05:00:00 9,0 6,9 - 0,0
26.06.2017 04:00:00 8,7 6,8 - 0,0
26.06.2017 03:00:00 9,2 6,0 - 0,0
26.06.2017 02:00:00 10,7 6,8 - 0,0
26.06.2017 01:00:00 10,4 7,1 - 0,0
26.06.2017 00:00:00 10,2 6,7 - 0,0
25.06.2017 23:00:00 10,9 6,8 - 0,0
25.06.2017 22:00:00 11,9 6,8 - 0,0
25.06.2017 21:00:00 13,6 6,3 - 0,0
25.06.2017 20:00:00 14,2 6,7 - 0,0
25.06.2017 19:00:00 14,9 6,4 - 0,0
25.06.2017 18:00:00 15,7 5,7 - 0,0
25.06.2017 17:00:00 16,5 6,4 - 0,0
25.06.2017 16:00:00 16,8 5,3 - 0,0
25.06.2017 15:00:00 18,1 5,4 - 0,0
25.06.2017 14:00:00 17,1 6,5 - 0,0
25.06.2017 13:00:00 16,6 5,9 - 0,0
25.06.2017 12:00:00 17,4 7,9 - 0,0
25.06.2017 11:00:00 14,8 5,2 - 0,0
25.06.2017 10:00:00 15,8 6,4 4,1 0,0
25.06.2017 09:00:00 14,3 5,4 - 0,0
25.06.2017 08:00:00 13,3 6,1 - 0,0
25.06.2017 07:00:00 11,3 6,6 - 0,0
25.06.2017 06:00:00 9,6 6,1 - 0,0
25.06.2017 05:00:00 9,0 5,1 - 0,0
25.06.2017 04:00:00 9,8 5,4 - 0,0
25.06.2017 03:00:00 9,4 5,5 - 0,0
25.06.2017 02:00:00 9,9 5,5 - 0,0
25.06.2017 01:00:00 10,1 5,7 - 0,0
25.06.2017 00:00:00 11,4 6,3 - 0,0
24.06.2017 23:00:00 11,7 6,2 - 0,0
24.06.2017 22:00:00 13,0 6,2 - 0,0
24.06.2017 21:00:00 13,5 5,7 - 0,0
24.06.2017 20:00:00 14,6 5,4 - 0,0
24.06.2017 19:00:00 15,0 6,2 - 0,0
24.06.2017 18:00:00 15,9 5,8 - 0,0
24.06.2017 17:00:00 15,6 6,1 - 0,0
24.06.2017 16:00:00 16,6 6,2 - 0,0
24.06.2017 15:00:00 18,0 8,1 - 0,0
24.06.2017 14:00:00 17,7 7,5 - 0,0
24.06.2017 13:00:00 16,2 6,8 - 0,0
24.06.2017 12:00:00 17,2 8,0 - 0,0
24.06.2017 11:00:00 16,3 7,5 - 0,0
24.06.2017 10:00:00 15,5 7,7 5 0,0
24.06.2017 09:00:00 14,1 7,3 - 0,0
24.06.2017 08:00:00 12,2 6,7 - 0,0
24.06.2017 07:00:00 11,9 7,4 - 0,0
24.06.2017 06:00:00 10,7 7,1 - 0,0
24.06.2017 05:00:00 10,4 6,9 - 0,0
24.06.2017 04:00:00 11,3 6,5 - 0,0
24.06.2017 03:00:00 11,1 6,8 - 0,0
24.06.2017 02:00:00 10,7 7,2 - 0,0
24.06.2017 01:00:00 11,1 8,4 - 0,0
24.06.2017 00:00:00 10,5 8,0 - 0,0
23.06.2017 23:00:00 12,8 8,2 - 0,0
23.06.2017 22:00:00 13,3 9,1 10 0,0
23.06.2017 21:00:00 14,9 8,8 - 0,0
23.06.2017 20:00:00 16,6 9,0 - 0,0
23.06.2017 19:00:00 17,2 9,0 - 0,0
23.06.2017 18:00:00 18,2 10,4 - 0,0
23.06.2017 17:00:00 16,9 11,5 - 0,0
23.06.2017 16:00:00 16,6 12,4 - 0,0
23.06.2017 15:00:00 16,4 14,0 - 0,4
23.06.2017 14:00:00 16,5 14,0 - 0,0
23.06.2017 13:00:00 17,1 13,5 - 0,0
23.06.2017 12:00:00 18,4 13,8 - 0,0
23.06.2017 11:00:00 15,7 13,0 - 0,0
23.06.2017 10:00:00 15,8 12,4 1,9 0,0
23.06.2017 09:00:00 15,7 12,2 - 0,0
23.06.2017 08:00:00 14,6 11,8 - 0,2
23.06.2017 07:00:00 14,4 11,1 - 0,0
23.06.2017 06:00:00 14,5 11,0 - 0,0
23.06.2017 05:00:00 14,0 10,7 - 0,0
23.06.2017 04:00:00 13,5 10,8 - 0,0
23.06.2017 03:00:00 13,7 10,3 - 0,0
23.06.2017 02:00:00 13,8 10,8 - 0,0
23.06.2017 01:00:00 13,9 10,2 - 0,0
23.06.2017 00:00:00 13,5 11,1 - 0,2
22.06.2017 23:00:00 14,6 11,5 - 0,0

tt = Temperatura
td = dewpoint
vv = visibility
rr = precipitazioni

Stazioni seguenti

WeatherPro
AMSI
MeteoEarth